CAPE
4 0 11 0 4 0 1 0 0 0 0 0 0 0 0 0 0 0 0 0 0 0 0 0 0 0 0 0 0 0 0 0 0 0 0 0 0 0 0 0 0 0
14 9 55 6 17 22 15 7 0 9 2 0 0 0 0 0 0 0 0 0 0 0 0 0 0 0 0 0 0 0 0 0 0 0 0 0 0 0 0 0 0 0
51 5 23 28 47 110 71 201 60 5 58 9 0 0 0 0 0 0 0 0 0 0 0 0 0 0 0 0 0 0 0 0 0 0 0 0 0 0 0 0 0 0
23 13 12 0 209 235 76 343 180 96 38 142 17 2 3 0 0 0 0 105 0 0 0 0 0 0 0 0 0 0 0 0 0 0 0 0 0 0 0 0 0 0
207 122 126 16 140 347 205 73 368 181 111 2 195 55 40 0 0 0 0 1 0 0 0 0 0 0 0 0 0 0 0 0 0 0 0 0 0 0 0 0 0 0
687 563 420 218 163 530 96 92 315 323 220 4 34 42 40 8 0 0 7 2 2 0 0 0 0 0 0 0 0 0 0 0 0 0 0 0 0 0 0 0 0 0
755 762 736 632 475 498 262 251 308 365 374 308 174 13 56 36 1 2 6 11 8 10 2 0 0 0 0 0 0 0 0 0 0 0 0 0 0 0 0 0 0 0
808 848 711 572 490 430 441 285 288 271 221 124 326 449 302 162 78 158 145 109 101 6 6 2 0 0 0 0 0 0 0 0 0 0 0 0 0 0 0 0 0 0
764 865 741 682 578 484 391 300 374 258 258 132 224 472 508 437 271 247 195 206 275 269 189 16 54 51 110 60 38 0 0 0 0 0 0 0 0 0 0 0 0 0
656 728 630 749 513 593 797 701 573 534 447 327 444 511 472 456 415 418 333 283 247 16 24 188 210 209 203 197 150 168 119 20 0 0 0 0 0 0 0 0 0 0
558 679 697 770 667 647 654 637 619 564 572 494 427 496 440 399 407 322 370 385 259 35 10 24 104 102 121 175 245 239 223 172 105 11 8 2 8 17 6 0 0 0
413 740 714 756 741 650 583 489 443 551 542 767 780 376 362 502 437 338 327 348 96 88 64 70 25 26 55 40 26 162 216 225 209 166 165 128 27 46 0 0 0 0
872 1034 991 955 827 758 653 451 466 539 570 663 796 656 631 651 512 457 428 417 417 300 122 112 94 32 7 34 19 20 2 15 55 197 184 190 195 5 0 0 0 0
471 752 733 758 671 776 748 643 506 515 592 590 608 681 627 643 612 553 539 494 484 442 334 84 46 17 21 33 41 100 29 26 2 183 175 169 187 55 46 0 0 0
789 752 768 603 510 480 518 506 496 485 530 571 565 574 578 554 482 451 463 476 451 422 369 256 317 264 79 244 254 110 57 170 186 200 200 198 181 188 168 96 0 0
0 363 388 584 525 568 554 480 421 407 406 449 459 476 534 561 549 517 486 504 526 516 464 375 240 47 318 331 329 257 29 50 175 231 231 182 142 127 128 86 23 1
0 0 0 0 7 16 294 350 489 559 514 425 416 488 531 507 467 492 512 502 482 475 498 511 488 487 480 466 450 361 244 277 319 280 248 190 5 110 138 145 84 8
0 0 0 0 0 0 0 0 30 295 431 498 597 655 607 510 483 487 460 428 405 433 466 504 575 605 590 512 482 444 364 306 323 274 164 59 0 136 138 129 114 52
0 0 0 0 0 0 0 0 0 0 0 0 66 239 430 610 660 644 572 560 552 517 483 504 520 594 654 690 700 680 578 496 416 323 197 181 27 6 59 100 6 90
0 0 0 0 0 0 0 0 0 0 0 0 0 0 0 38 220 520 685 717 664 613 634 649 691 706 720 720 732 698 611 528 279 251 73 69 46 0 0 27 20 24
0 0 0 0 0 0 0 0 0 0 0 0 0 0 0 0 0 0 0 7 151 361 495 505 413 573 667 738 785 702 580 490 492 388 224 70 49 0 0 0 0 26
0 0 0 0 0 0 0 0 0 0 0 0 0 0 0 0 0 0 0 0 0 56 269 390 414 590 706 747 718 651 524 443 392 344 290 170 0 0 0 0 0 0
0 0 0 0 0 0 0 0 0 0 0 0 0 0 0 0 0 0 0 0 0 0 20 258 381 392 382 503 551 516 466 425 384 308 212 195 166 92 49 15 0 5
0 0 0 0 0 0 0 0 0 0 0 0 0 0 0 0 0 0 0 0 0 0 0 142 213 240 279 385 414 387 396 382 255 254 173 27 0 9 0 0 0 6
0 0 0 0 0 0 0 0 0 0 0 0 0 0 0 0 0 0 0 0 0 0 0 71 145 179 216 257 274 294 296 298 293 263 196 0 0 0 0 0 0 0
0 0 0 0 0 0 0 0 0 0 0 0 0 0 0 0 0 0 0 0 0 0 0 0 0 53 162 175 178 188 219 245 212 142 135 118 72 52 4 2 0 0
Wind_Speed
nan nan nan nan nan nan nan nan nan nan nan nan nan nan nan nan nan nan nan nan nan nan nan nan nan nan nan nan nan nan nan nan nan nan nan nan nan nan nan nan nan nan
nan nan nan nan nan nan nan nan nan nan nan nan nan nan nan nan nan nan nan nan nan nan nan nan nan nan nan nan nan nan nan nan nan nan nan nan nan nan nan nan nan nan
nan nan nan nan nan 22 nan 17 nan nan nan nan nan nan nan nan nan nan nan nan nan nan nan nan nan nan nan nan nan nan nan nan nan nan nan nan nan nan nan nan nan nan
nan nan nan nan 24 22 nan 20 17 nan nan 21 nan nan nan nan nan nan nan 21 nan nan nan nan nan nan nan nan nan nan nan nan nan nan nan nan nan nan nan nan nan nan
32 27 24 nan 24 23 22 nan 20 19 19 nan 21 nan nan nan nan nan nan nan nan nan nan nan nan nan nan nan nan nan nan nan nan nan nan nan nan nan nan nan nan nan
31 23 20 21 24 26 nan nan 19 20 19 nan nan nan nan nan nan nan nan nan nan nan nan nan nan nan nan nan nan nan nan nan nan nan nan nan nan nan nan nan nan nan
27 23 20 20 24 27 24 20 19 21 21 20 21 nan nan nan nan nan nan nan nan nan nan nan nan nan nan nan nan nan nan nan nan nan nan nan nan nan nan nan nan nan
26 26 26 26 27 27 25 22 21 22 22 23 23 21 23 23 nan 23 23 23 23 nan nan nan nan nan nan nan nan nan nan nan nan nan nan nan nan nan nan nan nan nan
29 29 32 36 37 34 29 26 24 23 23 25 24 23 24 25 23 24 24 27 28 24 22 nan nan nan 21 nan nan nan nan nan nan nan nan nan nan nan nan nan nan nan
37 34 32 34 39 39 36 33 32 29 26 28 27 26 28 30 32 32 31 29 28 nan nan 19 20 22 24 25 25 23 21 nan nan nan nan nan nan nan nan nan nan nan
35 37 37 35 36 38 38 36 34 32 30 31 30 29 29 30 34 31 31 30 29 nan nan nan 29 32 32 26 21 22 23 22 23 nan nan nan nan nan nan nan nan nan
37 37 37 37 37 37 36 35 32 31 30 30 30 30 28 28 30 30 32 29 nan nan nan nan nan nan nan nan nan 20 21 23 24 25 25 23 nan nan nan nan nan nan
37 36 34 35 36 36 35 34 32 30 31 30 30 30 31 32 32 32 31 30 27 27 28 31 nan nan nan nan nan nan nan nan nan 27 28 27 25 nan nan nan nan nan
40 39 37 37 36 37 36 35 35 33 33 33 34 34 35 35 35 33 30 29 28 30 33 nan nan nan nan nan nan 23 nan nan nan 26 28 28 28 nan nan nan nan nan
44 45 44 44 43 42 41 38 37 36 37 37 37 36 36 36 38 38 36 35 37 38 37 35 35 36 nan 34 31 28 nan 20 20 25 28 29 29 30 32 nan nan nan
nan 48 47 48 48 47 45 44 42 42 42 41 39 39 39 40 41 41 41 40 40 40 40 38 36 nan 37 35 34 37 nan nan 37 36 33 33 34 35 36 nan nan nan
nan nan nan nan nan nan 50 49 49 49 48 46 46 46 44 44 44 44 44 43 43 42 41 40 39 39 37 38 39 43 43 44 46 44 42 41 nan 41 41 42 nan nan
nan nan nan nan nan nan nan nan nan 55 52 50 51 51 50 51 49 47 46 46 45 44 44 43 42 40 41 39 38 43 45 44 44 44 47 nan nan 45 44 43 44 nan
nan nan nan nan nan nan nan nan nan nan nan nan nan 52 53 54 51 51 48 48 48 46 44 43 43 41 41 41 39 38 44 45 45 46 49 47 nan nan nan 44 nan nan
nan nan nan nan nan nan nan nan nan nan nan nan nan nan nan nan 55 52 50 49 49 48 47 46 45 42 40 40 40 42 46 49 47 49 nan nan nan nan nan nan nan nan
nan nan nan nan nan nan nan nan nan nan nan nan nan nan nan nan nan nan nan nan 49 49 49 50 49 47 43 40 40 48 51 51 50 50 52 nan nan nan nan nan nan nan
nan nan nan nan nan nan nan nan nan nan nan nan nan nan nan nan nan nan nan nan nan nan 50 51 49 48 47 47 51 54 57 55 54 54 55 55 nan nan nan nan nan nan
nan nan nan nan nan nan nan nan nan nan nan nan nan nan nan nan nan nan nan nan nan nan nan 53 52 53 60 61 61 62 60 57 57 57 57 58 58 nan nan nan nan nan
nan nan nan nan nan nan nan nan nan nan nan nan nan nan nan nan nan nan nan nan nan nan nan 56 54 54 61 64 64 63 61 59 58 59 58 nan nan nan nan nan nan nan
nan nan nan nan nan nan nan nan nan nan nan nan nan nan nan nan nan nan nan nan nan nan nan nan 56 53 56 62 64 64 61 58 57 57 57 nan nan nan nan nan nan nan
nan nan nan nan nan nan nan nan nan nan nan nan nan nan nan nan nan nan nan nan nan nan nan nan nan nan 55 61 62 63 62 58 56 57 56 55 nan nan nan nan nan nan
Wind_Direction
nan nan nan nan nan nan nan nan nan nan nan nan nan nan nan nan nan nan nan nan nan nan nan nan nan nan nan nan nan nan nan nan nan nan nan nan nan nan nan nan nan nan
nan nan nan nan nan nan nan nan nan nan nan nan nan nan nan nan nan nan nan nan nan nan nan nan nan nan nan nan nan nan nan nan nan nan nan nan nan nan nan nan nan nan
nan nan nan nan nan 279 nan 284 nan nan nan nan nan nan nan nan nan nan nan nan nan nan nan nan nan nan nan nan nan nan nan nan nan nan nan nan nan nan nan nan nan nan
nan nan nan nan 273 278 nan 278 285 nan nan 289 nan nan nan nan nan nan nan 291 nan nan nan nan nan nan nan nan nan nan nan nan nan nan nan nan nan nan nan nan nan nan
265 270 267 nan 270 274 276 nan 283 291 290 nan 288 nan nan nan nan nan nan nan nan nan nan nan nan nan nan nan nan nan nan nan nan nan nan nan nan nan nan nan nan nan
259 266 269 270 270 275 nan nan 284 289 290 nan nan nan nan nan nan nan nan nan nan nan nan nan nan nan nan nan nan nan nan nan nan nan nan nan nan nan nan nan nan nan
255 263 269 272 276 276 277 275 277 282 283 285 282 nan nan nan nan nan nan nan nan nan nan nan nan nan nan nan nan nan nan nan nan nan nan nan nan nan nan nan nan nan
262 262 265 271 279 277 271 267 272 277 281 279 279 281 285 294 nan 290 284 283 281 nan nan nan nan nan nan nan nan nan nan nan nan nan nan nan nan nan nan nan nan nan
263 262 264 266 268 263 262 262 267 274 275 276 276 277 276 279 282 279 272 265 260 257 262 nan nan nan 280 nan nan nan nan nan nan nan nan nan nan nan nan nan nan nan
266 268 260 259 265 267 265 262 262 263 265 268 266 264 267 268 265 266 269 272 275 nan nan 268 275 278 280 285 286 282 281 nan nan nan nan nan nan nan nan nan nan nan
268 265 268 267 268 271 270 267 266 266 262 264 266 264 265 267 267 264 264 272 278 nan nan nan 271 269 266 258 257 274 284 283 280 nan nan nan nan nan nan nan nan nan
271 271 270 273 275 273 271 270 270 270 267 265 270 269 268 272 275 271 273 274 nan nan nan nan nan nan nan nan nan 281 283 281 279 279 278 275 nan nan nan nan nan nan
270 272 271 273 274 275 276 275 272 268 265 269 268 266 265 268 272 275 273 271 272 279 288 285 nan nan nan nan nan nan nan nan nan 277 277 277 276 nan nan nan nan nan
279 278 277 275 274 275 275 275 274 271 270 268 265 263 265 268 273 276 271 267 270 282 288 nan nan nan nan nan nan 277 nan nan nan 283 281 278 278 nan nan nan nan nan
275 276 277 277 278 277 276 276 275 274 272 270 268 268 268 270 273 275 274 270 272 278 282 282 283 286 nan 293 289 274 nan 273 288 291 287 283 280 280 279 nan nan nan
nan 273 275 276 277 278 279 278 277 277 276 275 275 275 274 274 274 275 278 279 278 279 280 281 282 nan 284 292 286 276 nan nan 275 277 283 284 284 283 283 nan nan nan
nan nan nan nan nan nan 277 278 277 277 277 277 278 278 279 278 277 277 278 280 280 280 279 280 281 281 286 286 285 282 275 275 278 280 282 285 nan 283 282 282 nan nan
nan nan nan nan nan nan nan nan nan 276 276 276 277 279 280 279 280 281 280 280 281 281 281 282 282 283 287 286 283 285 285 281 283 285 283 nan nan 282 281 280 280 nan
nan nan nan nan nan nan nan nan nan nan nan nan nan 277 276 278 279 280 282 283 283 283 283 282 281 283 286 285 282 280 285 283 280 281 283 286 nan nan nan 279 nan nan
nan nan nan nan nan nan nan nan nan nan nan nan nan nan nan nan 276 278 277 279 282 284 284 283 282 283 285 284 284 282 282 281 277 279 nan nan nan nan nan nan nan nan
nan nan nan nan nan nan nan nan nan nan nan nan nan nan nan nan nan nan nan nan 277 278 280 278 279 286 289 289 285 280 282 280 277 277 276 nan nan nan nan nan nan nan
nan nan nan nan nan nan nan nan nan nan nan nan nan nan nan nan nan nan nan nan nan nan 275 275 273 269 275 276 278 280 280 278 279 279 279 278 nan nan nan nan nan nan
nan nan nan nan nan nan nan nan nan nan nan nan nan nan nan nan nan nan nan nan nan nan nan 272 270 271 278 280 281 281 277 277 278 278 278 279 280 nan nan nan nan nan
nan nan nan nan nan nan nan nan nan nan nan nan nan nan nan nan nan nan nan nan nan nan nan 273 270 271 278 280 281 279 279 278 278 278 278 nan nan nan nan nan nan nan
nan nan nan nan nan nan nan nan nan nan nan nan nan nan nan nan nan nan nan nan nan nan nan nan 272 269 270 275 277 277 276 276 277 276 275 nan nan nan nan nan nan nan
nan nan nan nan nan nan nan nan nan nan nan nan nan nan nan nan nan nan nan nan nan nan nan nan nan nan 270 270 271 272 274 274 274 275 276 275 nan nan nan nan nan nan